www.pogodaiklimat.ru

Погода и климат >> Архив погоды >> Казахстан >> Астана


АРХИВ ПОГОДЫ в Астане

Время (UTC), дата Ветер
(напр.,м/с)
 
Видим.   Явления Облачность Т
(С)
Тd
(С)
f
(%)
Тe
(С)
Тes
(С)
Комфортность P
(гПа)
Po
(гПа)
Тmin
(С)
Tmax
(С)
R
(мм)
R24
(мм)
S
(см)
15 17.11 ЮЗ 4 н/о 10/10 330 м
[St]
+0.1 -2.0 86 -5 -5 по сезону 1025.4 981.9 +1.0
18 17.11 Ю 4 н/о 10/10 840 м
[Sc]
+0.1 -2.1 85 -5 -5 тепло 1023.4 979.9 +1.0 0.0
21 17.11 Ю 5 н/о 10/0
[Ac trans]
-0.1 -2.6 83 -6 -6 тепло 1020.5 977.1
00 18.11 ЮЗ 5 н/о 10/0
[Ci]
-0.2 -2.4 85 -6 -6 тепло 1018.5 975.2
03 18.11 Ю 5 1000 м ливневой снег 10/10 200 м
[Cb cap]
+0.1 -1.0 92 -6 -6 по сезону 1017.2 974.0 6
06 18.11 Ю 3 4000 м слабый ливневой снег 10/10 200 м
[Cb cap]
+0.2 -0.5 95 -5 -5 по сезону 1016.9 973.7 -0.5 0.3
09 18.11 З 3 4000 м слабый ливневой снег 10/10 200 м
[Cb cap]
+0.7 -0.3 93 -4 -4 тепло 1017.6 974.5
12 18.11 СЗ 3 н/о {ливн. осадки} 10/10 400 м
[Sc]
-0.7 -2.1 90 -6 -6 по сезону 1019.9 976.5
15 18.11 СЗ 3 н/о 10/10 450 м
[Sc]
-1.6 -3.6 86 -7 -7 по сезону 1023.0 979.3 +0.8
18 18.11 З 2 н/о 10/10 1110 м
[Sc]
-2.5 -4.7 85 -6 -6 тепло 1025.8 981.8 +0.8 1
21 18.11 З 2 н/о 3/0
[Ac trans]
-4.6 -6.1 89 -9 -9 по сезону 1028.9 984.4
00 19.11 З 2 н/о 10/10 1110 м
[Sc]
-4.2 -6.2 86 -8 -8 по сезону 1031.2 986.7
03 19.11 ЮЗ 1 4000 м слабый снег 10/10 200 м
[St]
-3.3 -4.4 92 -6 -6 по сезону 1032.9 988.5
06 19.11 Ю 3 10 км {снег} 10/10 1110 м
[Sc]
-1.5 -5.5 74 -6 -6 по сезону 1033.7 989.5 -6.0 0.0
09 19.11 З 4 4000 м слабый снег 10/10 300 м
[St]
-1.4 -3.7 84 -7 -7 по сезону 1034.0 989.8
12 19.11 З 3 н/о {снег} 10/10 240 м
[St]
-1.4 -3.0 89 -6 -6 по сезону 1035.1 990.9
15 19.11 З 2 н/о {снег} 10/10 270 м
[St]
-1.4 -2.7 91 -5 -5 тепло 1036.1 991.9 -0.9
18 19.11 З 1 н/о {снег} 4/4 1000 м
[Sc]
-3.0 -4.1 92 -5 -5 тепло 1037.1 992.6 -0.9 0.4
21 19.11 З 1 н/о 9/6 800 м
[Sc Ac As]
-2.3 -3.7 90 -5 -5 тепло 1037.9 993.4
00 20.11 ЮЗ 1 н/о 10/10 180 м
[Sc]
-2.6 -3.7 92 -5 -5 тепло 1038.6 994.1
03 20.11 ЮЗ 1 10 км 10/10 960 м
[Sc]
-2.9 -4.0 92 -5 -5 тепло 1039.0 994.4 6
06 20.11 ЮЗ 1 10 км 10/10 870 м
[Sc]
-0.8 -3.3 83 -3 -3 тепло 1039.3 995.0 -3.6
09 20.11 З 3 10 км 10/10 300 м
[Sc]
-1.3 -5.0 76 -6 -6 по сезону 1039.1 994.7
12 20.11 ЮЗ 2 н/о 10/10 700 м
[Sc]
-1.9 -6.5 71 -6 -6 по сезону 1039.3 994.8
15 20.11 Ю 1 н/о ясно -3.4 -6.3 80 -6 -6 по сезону 1039.3 994.6 -0.5
18 20.11 Ю 1 н/о ясно -6.2 -7.7 89 -9 -9 по сезону 1039.5 994.3 -0.5
21 20.11 Ю 1 н/о ясно -8.0 -9.3 90 -10 -10 по сезону 1039.5 994.0
00 21.11 Ю 2 н/о ясно -8.5 -9.8 90 -13 -13 по сезону 1039.3 993.7
03 21.11 Ю 1 10 км 3/0
[Ci fib]
-9.2 -10.8 88 -12 -12 по сезону 1039.6 993.9 6
06 21.11 Ю 2 10 км 3/0
[Ci fib]
-4.8 -8.7 74 -9 -7 по сезону 1038.6 993.7 -9.6
09 21.11 ЮЗ 2 10 км 3/0
[Ci fib]
-1.3 -6.6 67 -5 -4 тепло 1037.2 992.9
12 21.11 Ю 1 н/о 3/0
[Ci fib]
-3.2 -6.7 77 -5 -5 тепло 1037.4 992.8
15 21.11 Ю 1 н/о 3/0
[Ci fib]
-5.2 -8.9 75 -7 -7 по сезону 1037.1 992.2 -0.9
18 21.11 Ю 2 н/о 3/0
[Ci fib]
-5.8 -11.1 66 -10 -10 по сезону 1036.3 991.3 -0.9
21 21.11 ЮЗ 1 н/о 10/0
[Ci fib]
-5.7 -10.7 68 -8 -8 по сезону 1035.4 990.5
00 22.11 Ю 2 н/о 10/0
[Ci fib]
-6.1 -10.9 69 -10 -10 по сезону 1034.7 989.7
03 22.11 Ю 1 10 км 10/0
[Ci]
-4.8 -10.2 66 -7 -7 по сезону 1034.3 989.6 5
06 22.11 Ю 2 10 км 10/0
[Ci]
-2.1 -8.8 60 -6 -4 по сезону 1033.6 989.3 -6.6
09 22.11 Ю 1 10 км 10/0
[Cs]
+0.3 -7.7 55 -1 0 тепло 1031.8 988.0
12 22.11 Ю 1 н/о 10/0
[Ac trans Ci]
-0.3 -6.7 62 -2 -2 тепло 1031.1 987.2
15 22.11 штиль 0 н/о 10/0
[Ci]
-1.3 -7.6 62 -2 -2 тепло 1030.8 986.8 +0.8
18 22.11 Ю 2 н/о 10/0
[Ci]
-3.1 -9.8 60 -7 -7 тепло 1030.2 985.9 +0.8
21 22.11 В 1 н/о ясно -3.1 -9.1 63 -5 -5 тепло 1029.1 984.9
00 23.11 штиль 0 н/о ясно -3.4 -9.6 62 -4 -4 тепло 1028.5 984.2
03 23.11 штиль 0 4000 м дым 3/0
[Ci]
-2.9 -11.6 51 -3 -3 тепло 1028.4 984.2 5
06 23.11 Ю 1 4000 м дым 3/0
[Ci]
+1.8 -10.4 40 +1 +3 тепло 1027.5 984.1 -4.7
09 23.11 штиль 0 4000 м дым 3/0
[Ci]
+4.9 -7.9 39 +5 +6 тепло 1026.2 983.3
12 23.11 штиль 0 н/о ясно +1.2 -7.1 54 +1 +1 тепло 1026.4 983.0
15 23.11 штиль 0 н/о дым ясно +1.1 -10.1 43 +1 +1 тепло 1026.2 982.7 +5.6
18 23.11 В 1 н/о ясно -0.2 -12.8 38 -1 -1 тепло 1026.5 982.8 +5.6
21 23.11 штиль 0 н/о ясно -1.0 -12.0 43 -1 -1 тепло 1026.0 982.2
00 24.11 штиль 0 н/о ясно -2.0 -11.3 49 -2 -2 тепло 1025.7 981.8
03 24.11 штиль 0 10 км ясно -2.2 -11.2 50 -3 -3 тепло 1025.6 981.6 4
06 24.11 Ю 2 10 км ясно +1.9 -10.3 40 -1 +1 тепло 1024.6 981.3 -2.9
09 24.11 штиль 0 10 км ясно +4.4 -8.0 40 +4 +6 тепло 1023.1 980.3

 

Местоположение метеостанции Астана (город Астана, Казахстан): широта 51.13 долгота 71.37 высота над уровнем моря 350 м.

В архиве по умолчанию представлена погода в Астане за последнюю неделю. Архивные данные за месяц целиком и за предыдущие месяцы, начиная с января 2011 года, Вы можете получить, выбрав интересующий диапазон дат из раскрывающегося списка и нажав кнопку "Ввод!".

Внимание! Время в таблицах - всемирное. Для получения местного времени необходимо прибавить поправку, которая в Астане равна 6 ч.

Смотрите также архив погоды в соседних городах и на ближайших метеорологических станциях:

Погода в Астане 2 (город Астана, Казахстан) (4 км)
Погода в Арнасае (Акмолинская область, Казахстан) (51 км)
Погода в Шортанды (Акмолинская область, Казахстан) (65 км)
Погода в Аршалы (Акмолинская область, Казахстан) (73 км)
Погода в Новомарковке (Акмолинская область, Казахстан) (92 км)
Погода в Киевке (Карагандинская область, Казахстан) (99 км)
Погода в Акколе (Акмолинская область, Казахстан) (101 км)
Погода в Осакаровке (Карагандинская область, Казахстан) (105 км)
Погода в Кургальджин (Акмолинская область, Казахстан) (114 км)
Погода в Жалтыре (Акмолинская область, Казахстан) (122 км)

Пояснения к столбцам:

Ветер - указаны скорость ветра в м/с - средняя за 10 мин, порывы в срок и между сроками (в фигурных скобках) и направление, откуда дует ветер: С - северный, СВ - северо-восточный, В - восточный, ЮВ - юго-восточный, Ю - южный, ЮЗ - юго-западный, З - западный, СЗ - северо-западный.
Видимость - горизонтальная дальность видимости в метрах или километрах. При видимости от 1 до 10 км при отсутствии осадков обычно наблюдается дымка, при ухудшении видимости до 1 км и менее - туман. В сухую погоду видимость может ухудшаться дымом, пылью или мглою.
Явления - указаны атмосферные явления, наблюдавшиеся в срок или в последний час перед сроком; фигурными скобками обозначены явления, наблюдавшиеся между сроками (за 1-3 часа до срока); квадратными скобками обозначены град или гололедные отложения с указанием их диаметра в мм.
Облачность - указаны через наклонную черту общая и нижняя облачность в баллах и высота нижней границы облаков в метрах; квадратными скобками обозначены формы облаков: Ci - перистые, Cs - перисто-слоистые, Cc - перисто-кучевые, Ac - высококучевые, As - высокослоистые, Sc - слоисто-кучевые, Ns - слоисто-дождевые, Cu - кучевые, Cb - кучево-дождевые. Подробнее классификацию облаков см. в Атласе облаков (PDF).
T - Температура воздуха - температура, измеренная на высоте 2 м над землей.
Td - Температура точки росы - температура, при понижении до которой содержащийся в воздухе водяной пар достигнет насыщения.
f - Относительная влажность воздуха - влажноcть воздуха, измеренная на высоте 2 м над землей.
Te - Эффективная температура - температура, которую ощущает одетый по сезону человек в тени. Характеристика душности погоды. При расчете учитывается влияние влажности воздуха и скорости ветра на теплоощущения человека.
Tes - Эффективная температура на солнце - температура, которую ощущает человек, с поправкой на солнечный нагрев. Характеристика знойности погоды. Зависит от высоты солнца над горизонтом, облачности и скорости ветра. Ночью, в пасмурную погоду, а также при ветре 12 м/с и более поправка равна нулю.
P - Атмосферное давление - приведенное к уровню моря атмосферное давление.
Po - Атмосферное давление - измеренное на уровне метеостанции атмосферное давление.
Tmin - Минимальная температура - минимум температуры воздуха на высоте 2 м над землей.
Tmax - Максимальная температура - максимум температуры воздуха на высоте 2 м над землей.
R - Количество осадков - Количество выпавших осадков за период времени, мм. При наведении курсора мыши на число - период времени, за который выпало указанное количество осадков.
R24 - Количество осадков - Количество выпавших осадков за 24 часа, мм.
S - Снежный покров - Высота снежного покрова, см. При наведении курсора мыши на число - состояние снежного покрова и степень покрытия местности в баллах.